Location: Newark
(40.7636°N, 73.9728°W)
Time: 08:19:34
(UTC+00:00)

Envisat - Visible Passes

Search period start: 16 September 2019 00:00
Search period end: 26 September 2019 00:00
Orbit: 764 x 766 km, 98.1° (Epoch: 16 September)

Date Brightness Start Highest point End Pass type
(mag) Time Alt. Az. Time Alt. Az. Time Alt. Az.
16 Sep 5.6 00:10:36 10° SW 00:14:31 22° W 00:18:29 10° NW visible
16 Sep 4.1 23:32:38 10° S 23:37:33 50° W 23:42:29 10° NNW visible
18 Sep 6.1 00:38:13 10° WSW 00:40:18 12° W 00:42:24 10° WNW visible
18 Sep 5.2 23:58:51 10° SSW 00:03:11 28° W 00:07:33 10° NW visible
19 Sep 3.6 23:21:14 10° S 23:26:16 64° W 23:31:19 10° NNW visible
21 Sep 5.9 00:25:50 10° SW 00:28:55 16° W 00:32:02 10° NW visible
21 Sep 4.7 23:47:14 10° SSW 23:51:52 36° W 23:56:32 10° NNW visible
24 Sep 5.7 00:13:49 10° SW 00:17:34 20° W 00:21:18 10° NW visible
24 Sep 4.3 23:35:42 10° S 23:40:33 45° W 23:45:26 10° NNW visible
